This is the latest recevied weather packets stored in our database for station/object AB4KN. If no packets are shown the sender has not sent any weather packets the latest 10 day(s).
| Time | Temp. | Humidity | Pressure | Rain* | Wind** | Luminosity | Snow |
|---|---|---|---|---|---|---|---|
| 1777470977 | 18.33° C | 89% | 1019.7 hPa | 0 mm | - | 56 W/m² | - |
| 1777470674 | 17.78° C | 89% | 1019.3 hPa | 0 mm | - | 55 W/m² | - |
| 1777470370 | 17.78° C | 89% | 1018.7 hPa | 0 mm | - | 64 W/m² | - |
| 1777470067 | 17.78° C | 89% | 1019.1 hPa | 0 mm | - | 51 W/m² | - |
| 1777469763 | 17.78° C | 89% | 1019.6 hPa | 0 mm | - | 56 W/m² | - |
| 1777469459 | 17.78° C | 89% | 1019.6 hPa | 0 mm | - | 69 W/m² | - |
| 1777469153 | 17.78° C | 89% | 1020.1 hPa | 0 mm | - | 60 W/m² | - |
| 1777468848 | 17.22° C | 89% | 1020.2 hPa | 0 mm | - | 52 W/m² | - |
| 1777468545 | 17.22° C | 89% | 1020.7 hPa | 0 mm | - | 52 W/m² | - |
| 1777468241 | 17.22° C | 89% | 1020.7 hPa | 0 mm | - | 51 W/m² | - |
| 1777467938 | 17.22° C | 89% | 1020.6 hPa | 0 mm | - | 43 W/m² | - |
| 1777467634 | 17.22° C | 89% | 1020.5 hPa | 0 mm | - | 37 W/m² | - |
| 1777467329 | 17.22° C | 89% | 1020.5 hPa | 0 mm | - | 39 W/m² | - |
| 1777467026 | 17.22° C | 89% | 1020.8 hPa | 0 mm | - | 33 W/m² | - |
| 1777466723 | 17.22° C | 89% | 1020.2 hPa | 0 mm | - | 30 W/m² | - |
| 1777466420 | 17.22° C | 89% | 1020.4 hPa | 0 mm | - | 30 W/m² | - |
| 1777466115 | 17.22° C | 89% | 1020.3 hPa | 0 mm | - | 31 W/m² | - |
| 1777465813 | 17.22° C | 89% | 1020.3 hPa | 0 mm | - | 27 W/m² | - |
| 1777465508 | 17.22° C | 89% | 1020.2 hPa | 0 mm | - | 22 W/m² | - |
| 1777465203 | 17.22° C | 89% | 1020.1 hPa | 0 mm | - | 16 W/m² | - |
| 1777464897 | 17.22° C | 89% | 1020.5 hPa | 0 mm | - | 14 W/m² | - |
| 1777464593 | 17.22° C | 89% | 1020.5 hPa | 0 mm | - | 15 W/m² | - |
| 1777464289 | 17.22° C | 89% | 1020.5 hPa | 0 mm | - | 16 W/m² | - |
| 1777463985 | 17.22° C | 89% | 1020.6 hPa | 0 mm | - | 20 W/m² | - |
| 1777463680 | 17.22° C | 89% | 1021 hPa | 0 mm | - | 16 W/m² | - |
* Rain latest hour (hover to see other rain measurements)
** Current wind speed in m/s (hover to see current wind gust speed)